SWA915 KIND-KATL

Flight info

Callsign SWA915
Flight time 1h 8m
Altitude 36000
Route DAWNN1 MYS HITMN/N0439F350 NEWBB IHAVE MTHEW CHPPR1
Aircraft B38M/M-SDE1FGHILORVWXY/HB1

Departure

Time 2026-05-04 00:58
Airport Indianapolis International Airport (KIND)

Arrival

Time 2026-05-04 02:07
Airport Hartsfield Jackson Atlanta International Airport (KATL)
Time Latitude Longitude Altitude Speed Heading
2026-05-04 00:22 39.71847 -86.29590 786 ft 0 kts 243°
2026-05-04 00:49 39.71848 -86.29589 783 ft 1 kts 243°
2026-05-04 00:50 39.71855 -86.29571 783 ft 3 kts 243°
2026-05-04 00:50 39.71864 -86.29547 783 ft 3 kts 243°
2026-05-04 00:50 39.71873 -86.29524 783 ft 3 kts 243°
2026-05-04 00:50 39.71879 -86.29510 783 ft 3 kts 243°
2026-05-04 00:51 39.71885 -86.29486 783 ft 3 kts 266°
2026-05-04 00:51 39.71883 -86.29462 783 ft 3 kts 294°
2026-05-04 00:51 39.71875 -86.29444 783 ft 1 kts 308°
2026-05-04 00:51 39.71874 -86.29442 783 ft 2 kts 308°
2026-05-04 00:53 39.71876 -86.29445 783 ft 1 kts 307°
2026-05-04 00:53 39.71887 -86.29464 783 ft 4 kts 307°
2026-05-04 00:54 39.71908 -86.29499 783 ft 6 kts 307°
2026-05-04 00:54 39.71942 -86.29546 783 ft 8 kts 314°
2026-05-04 00:54 39.71977 -86.29601 783 ft 8 kts 306°
2026-05-04 00:54 39.72018 -86.29666 783 ft 10 kts 328°
2026-05-04 00:55 39.72086 -86.29669 783 ft 11 kts 12°
2026-05-04 00:55 39.72143 -86.29614 783 ft 10 kts 30°
2026-05-04 00:55 39.72210 -86.29647 783 ft 13 kts 320°
2026-05-04 00:55 39.72308 -86.29658 783 ft 21 kts 43°
2026-05-04 00:56 39.72439 -86.29490 783 ft 32 kts 44°
2026-05-04 00:56 39.72624 -86.29255 783 ft 42 kts 45°
2026-05-04 00:56 39.72774 -86.29231 783 ft 26 kts 313°
2026-05-04 00:56 39.72718 -86.29449 782 ft 46 kts 210°
2026-05-04 00:57 39.72441 -86.29774 781 ft 27 kts 225°
2026-05-04 00:57 39.72162 -86.30137 783 ft 98 kts 225°
2026-05-04 00:57 39.71491 -86.31012 794 ft 171 kts 230°
2026-05-04 00:57 39.70439 -86.32166 1027 ft 220 kts 222°
2026-05-04 00:58 39.70025 -86.33367 3564 ft 25 kts 254°
2026-05-04 00:58 39.70135 -86.33358 4445 ft 23 kts 354°
2026-05-04 00:58 39.70794 -86.32899 993 ft 288 kts 26°
2026-05-04 00:58 39.72572 -86.32521 2808 ft 253 kts 336°
2026-05-04 00:59 39.74045 -86.33737 3338 ft 253 kts 306°
2026-05-04 00:59 39.74838 -86.35646 3407 ft 240 kts 276°
2026-05-04 00:59 39.74811 -86.37761 3557 ft 234 kts 251°
2026-05-04 00:59 39.74049 -86.39610 3696 ft 239 kts 228°
2026-05-04 01:00 39.72652 -86.40892 3761 ft 258 kts 203°
2026-05-04 01:00 39.70803 -86.41127 3956 ft 284 kts 175°
2026-05-04 01:00 39.68809 -86.40529 4269 ft 302 kts 174°
2026-05-04 01:00 39.66683 -86.39988 4567 ft 321 kts 175°
2026-05-04 01:01 39.64429 -86.39429 4866 ft 338 kts 175°
2026-05-04 01:01 39.62091 -86.38833 5158 ft 347 kts 174°
2026-05-04 01:01 39.59729 -86.38212 5477 ft 354 kts 174°
2026-05-04 01:01 39.57284 -86.37558 5798 ft 362 kts 174°
2026-05-04 01:02 39.54802 -86.36874 6579 ft 367 kts 174°
2026-05-04 01:02 39.52269 -86.36171 7178 ft 378 kts 174°
2026-05-04 01:02 39.49653 -86.35455 7815 ft 387 kts 174°
2026-05-04 01:02 39.46997 -86.34719 8585 ft 393 kts 173°
2026-05-04 01:03 39.44295 -86.33973 9314 ft 399 kts 173°
2026-05-04 01:03 39.41586 -86.33221 10008 ft 405 kts 173°
2026-05-04 01:03 39.38814 -86.32453 10656 ft 410 kts 173°
2026-05-04 01:03 39.36007 -86.31696 11329 ft 413 kts 176°
2026-05-04 01:04 39.33148 -86.31389 11962 ft 414 kts 182°
2026-05-04 01:04 39.30254 -86.31102 12609 ft 419 kts 181°
2026-05-04 01:04 39.27322 -86.30784 13257 ft 424 kts 181°
2026-05-04 01:04 39.24364 -86.30446 13876 ft 429 kts 181°
2026-05-04 01:05 39.21368 -86.30095 14452 ft 434 kts 181°
2026-05-04 01:05 39.18383 -86.29744 15050 ft 438 kts 181°
2026-05-04 01:05 39.15332 -86.29385 15682 ft 442 kts 181°
2026-05-04 01:05 39.12251 -86.29022 16278 ft 446 kts 181°
2026-05-04 01:06 39.09142 -86.28657 16881 ft 451 kts 181°
2026-05-04 01:06 39.06004 -86.28288 17437 ft 455 kts 182°
2026-05-04 01:06 39.02831 -86.27932 18002 ft 459 kts 182°
2026-05-04 01:06 38.99632 -86.27579 18548 ft 463 kts 182°
2026-05-04 01:07 38.96410 -86.27223 19069 ft 466 kts 182°
2026-05-04 01:07 38.93178 -86.26865 19604 ft 468 kts 182°
2026-05-04 01:07 38.89922 -86.26506 20132 ft 471 kts 182°
2026-05-04 01:07 38.86648 -86.26144 20645 ft 473 kts 182°
2026-05-04 01:08 38.83352 -86.25782 21143 ft 476 kts 182°
2026-05-04 01:08 38.80048 -86.25417 21736 ft 475 kts 182°
2026-05-04 01:08 38.76789 -86.25058 22251 ft 478 kts 182°
2026-05-04 01:08 38.73461 -86.24692 22714 ft 481 kts 182°
2026-05-04 01:09 38.70114 -86.24325 23209 ft 483 kts 182°
2026-05-04 01:09 38.66759 -86.23957 23670 ft 486 kts 182°
2026-05-04 01:09 38.63383 -86.23587 24045 ft 489 kts 182°
2026-05-04 01:09 38.59984 -86.23214 24417 ft 491 kts 182°
2026-05-04 01:10 38.56586 -86.23041 24826 ft 483 kts 192°
2026-05-04 01:10 38.53279 -86.23610 25222 ft 481 kts 195°
2026-05-04 01:10 38.49954 -86.24218 25518 ft 484 kts 195°
2026-05-04 01:10 38.46611 -86.24851 25868 ft 486 kts 196°
2026-05-04 01:11 38.43253 -86.25496 26160 ft 489 kts 196°
2026-05-04 01:11 38.39886 -86.26145 26523 ft 489 kts 196°
2026-05-04 01:11 38.36523 -86.26794 26930 ft 488 kts 196°
2026-05-04 01:11 38.33160 -86.27442 27334 ft 488 kts 196°
2026-05-04 01:12 38.29802 -86.28089 27740 ft 487 kts 196°
2026-05-04 01:12 38.26449 -86.28733 28141 ft 487 kts 197°
2026-05-04 01:12 38.23103 -86.29376 28545 ft 486 kts 197°
2026-05-04 01:12 38.19757 -86.30019 28954 ft 486 kts 197°
2026-05-04 01:13 38.16451 -86.30653 29368 ft 486 kts 197°
2026-05-04 01:13 38.13112 -86.31292 29739 ft 485 kts 197°
2026-05-04 01:13 38.09774 -86.31931 30145 ft 484 kts 197°
2026-05-04 01:13 38.06440 -86.32565 30467 ft 485 kts 195°
2026-05-04 01:14 38.03098 -86.33190 30796 ft 485 kts 196°
2026-05-04 01:14 37.99754 -86.33831 31103 ft 485 kts 196°
2026-05-04 01:14 37.96408 -86.34474 31417 ft 486 kts 197°
2026-05-04 01:14 37.93063 -86.35113 31823 ft 483 kts 197°
2026-05-04 01:15 37.89770 -86.35738 32558 ft 473 kts 197°
2026-05-04 01:15 37.86533 -86.36354 33196 ft 468 kts 197°
2026-05-04 01:15 37.83300 -86.36973 33447 ft 471 kts 197°
2026-05-04 01:15 37.80094 -86.37582 33798 ft 471 kts 198°
2026-05-04 01:16 37.76846 -86.38199 34130 ft 472 kts 198°
2026-05-04 01:16 37.73596 -86.38815 34463 ft 471 kts 197°
2026-05-04 01:16 37.70353 -86.39429 34836 ft 469 kts 197°
2026-05-04 01:16 37.67133 -86.40039 35228 ft 467 kts 197°
2026-05-04 01:17 37.63928 -86.40646 35588 ft 465 kts 197°
2026-05-04 01:17 37.60732 -86.41250 35949 ft 463 kts 197°
2026-05-04 01:17 37.57542 -86.41853 36046 ft 463 kts 197°
2026-05-04 01:18 37.51204 -86.43049 36016 ft 459 kts 197°
2026-05-04 01:18 37.44912 -86.44233 36026 ft 460 kts 197°
2026-05-04 01:19 37.38585 -86.45422 36008 ft 459 kts 197°
2026-05-04 01:19 37.32249 -86.46610 36025 ft 459 kts 197°
2026-05-04 01:20 37.25917 -86.47795 36044 ft 459 kts 197°
2026-05-04 01:20 37.19594 -86.48977 35945 ft 460 kts 197°
2026-05-04 01:20 37.16465 -86.49561 35736 ft 459 kts 197°
2026-05-04 01:21 37.13298 -86.50152 35551 ft 460 kts 197°
2026-05-04 01:21 37.10119 -86.50744 35375 ft 461 kts 197°
2026-05-04 01:21 37.06943 -86.51336 35199 ft 462 kts 197°
2026-05-04 01:21 37.03757 -86.51928 35025 ft 463 kts 197°
2026-05-04 01:22 37.00567 -86.52521 34836 ft 464 kts 197°
2026-05-04 01:22 36.97362 -86.53116 34666 ft 465 kts 197°
2026-05-04 01:22 36.94154 -86.53711 34460 ft 466 kts 197°
2026-05-04 01:22 36.90981 -86.54299 34280 ft 467 kts 197°
2026-05-04 01:23 36.87762 -86.54896 34105 ft 467 kts 197°
2026-05-04 01:23 36.81318 -86.56088 34049 ft 469 kts 197°
2026-05-04 01:24 36.74852 -86.57282 34036 ft 470 kts 197°
2026-05-04 01:24 36.68340 -86.58485 34024 ft 474 kts 197°
2026-05-04 01:25 36.61829 -86.59681 34061 ft 473 kts 196°
2026-05-04 01:25 36.55315 -86.60878 34074 ft 473 kts 196°
2026-05-04 01:26 36.48803 -86.62072 34081 ft 473 kts 196°
2026-05-04 01:26 36.42334 -86.63256 34060 ft 472 kts 196°
2026-05-04 01:27 36.35825 -86.64446 34079 ft 473 kts 196°
2026-05-04 01:27 36.29317 -86.65635 34080 ft 472 kts 196°
2026-05-04 01:28 36.22807 -86.66821 34075 ft 472 kts 196°
2026-05-04 01:28 36.16269 -86.67810 34058 ft 480 kts 185°
2026-05-04 01:28 36.12966 -86.67274 34069 ft 492 kts 169°
2026-05-04 01:29 36.09770 -86.65651 34076 ft 501 kts 154°
2026-05-04 01:29 36.03668 -86.61398 34087 ft 504 kts 154°
2026-05-04 01:30 35.97554 -86.57106 34089 ft 504 kts 154°
2026-05-04 01:30 35.91512 -86.52860 34096 ft 494 kts 154°
2026-05-04 01:31 35.85590 -86.48706 34101 ft 491 kts 154°
2026-05-04 01:31 35.82652 -86.46646 34098 ft 477 kts 154°
2026-05-04 01:31 35.79779 -86.44635 34100 ft 472 kts 154°
2026-05-04 01:32 35.74084 -86.40644 34087 ft 470 kts 153°
2026-05-04 01:32 35.68417 -86.36617 34060 ft 469 kts 154°
2026-05-04 01:33 35.62800 -86.32638 34076 ft 469 kts 154°
2026-05-04 01:33 35.57143 -86.28638 34076 ft 469 kts 154°
2026-05-04 01:34 35.51479 -86.24633 34118 ft 468 kts 154°
2026-05-04 01:34 35.45829 -86.20646 34118 ft 469 kts 154°
2026-05-04 01:35 35.40430 -86.16161 33665 ft 467 kts 143°
2026-05-04 01:35 35.37927 -86.13714 32720 ft 468 kts 144°
2026-05-04 01:35 35.35334 -86.11200 31271 ft 479 kts 144°
2026-05-04 01:35 35.32693 -86.08638 29612 ft 492 kts 144°
2026-05-04 01:36 35.30029 -86.06056 29180 ft 473 kts 144°
2026-05-04 01:36 35.27524 -86.03631 29259 ft 445 kts 144°
2026-05-04 01:36 35.25132 -86.01336 28967 ft 432 kts 144°
2026-05-04 01:36 35.23571 -85.99841 28670 ft 428 kts 144°
2026-05-04 01:37 35.20463 -85.96859 28201 ft 422 kts 144°
2026-05-04 01:37 35.18931 -85.95391 27959 ft 420 kts 144°
2026-05-04 01:37 35.15891 -85.92488 27550 ft 416 kts 144°
2026-05-04 01:37 35.13618 -85.90314 27243 ft 413 kts 144°
2026-05-04 01:38 35.12120 -85.88877 27027 ft 411 kts 144°
2026-05-04 01:38 35.09872 -85.86733 26711 ft 408 kts 144°
2026-05-04 01:38 35.07640 -85.84606 26395 ft 406 kts 144°
2026-05-04 01:38 35.05418 -85.82486 26083 ft 404 kts 144°
2026-05-04 01:39 35.03209 -85.80382 25772 ft 401 kts 144°
2026-05-04 01:39 35.01006 -85.78286 25458 ft 399 kts 144°
2026-05-04 01:39 34.98819 -85.76205 25146 ft 397 kts 144°
2026-05-04 01:39 34.96646 -85.74139 24844 ft 394 kts 144°
2026-05-04 01:40 34.94512 -85.72112 24540 ft 392 kts 144°
2026-05-04 01:40 34.92362 -85.70070 24251 ft 390 kts 144°
2026-05-04 01:40 34.90225 -85.68044 23927 ft 387 kts 144°
2026-05-04 01:40 34.88107 -85.66040 23621 ft 384 kts 144°
2026-05-04 01:41 34.86006 -85.64047 23279 ft 380 kts 144°
2026-05-04 01:41 34.83921 -85.62071 22979 ft 379 kts 144°
2026-05-04 01:41 34.81840 -85.60101 22696 ft 378 kts 144°
2026-05-04 01:41 34.79762 -85.58134 22397 ft 377 kts 144°
2026-05-04 01:42 34.77724 -85.56206 22050 ft 375 kts 144°
2026-05-04 01:42 34.75675 -85.54269 21776 ft 370 kts 144°
2026-05-04 01:42 34.73644 -85.52349 21522 ft 370 kts 143°
2026-05-04 01:42 34.71613 -85.50431 21239 ft 369 kts 143°
2026-05-04 01:43 34.69591 -85.48525 20944 ft 367 kts 143°
2026-05-04 01:43 34.67580 -85.46627 20660 ft 365 kts 143°
2026-05-04 01:43 34.65580 -85.44741 20384 ft 363 kts 143°
2026-05-04 01:43 34.63580 -85.42855 20098 ft 361 kts 143°
2026-05-04 01:44 34.61603 -85.40995 19817 ft 359 kts 143°
2026-05-04 01:44 34.59634 -85.39142 19537 ft 356 kts 143°
2026-05-04 01:44 34.57675 -85.37300 19265 ft 355 kts 143°
2026-05-04 01:44 34.55727 -85.35470 18986 ft 353 kts 143°
2026-05-04 01:45 34.53814 -85.33672 18727 ft 352 kts 143°
2026-05-04 01:45 34.51879 -85.31857 18457 ft 350 kts 143°
2026-05-04 01:45 34.48056 -85.28271 17881 ft 344 kts 143°
2026-05-04 01:46 34.46154 -85.26490 17523 ft 343 kts 142°
2026-05-04 01:46 34.44274 -85.24729 17227 ft 340 kts 142°
2026-05-04 01:46 34.42401 -85.22976 16952 ft 340 kts 142°
2026-05-04 01:46 34.40531 -85.21227 16691 ft 339 kts 142°
2026-05-04 01:47 34.38664 -85.19481 16425 ft 338 kts 142°
2026-05-04 01:47 34.36829 -85.17767 16168 ft 336 kts 142°
2026-05-04 01:47 34.34981 -85.16042 15863 ft 334 kts 142°
2026-05-04 01:47 34.33148 -85.14332 15614 ft 330 kts 142°
2026-05-04 01:48 34.31323 -85.12630 15360 ft 330 kts 142°
2026-05-04 01:48 34.29504 -85.10934 15110 ft 330 kts 142°
2026-05-04 01:48 34.27689 -85.09244 14851 ft 328 kts 142°
2026-05-04 01:48 34.25889 -85.07567 14601 ft 325 kts 142°
2026-05-04 01:49 34.24103 -85.05905 14350 ft 324 kts 142°
2026-05-04 01:49 34.22337 -85.04262 14113 ft 324 kts 142°
2026-05-04 01:49 34.20551 -85.02603 13877 ft 323 kts 142°
2026-05-04 01:49 34.18781 -85.00958 13595 ft 319 kts 142°
2026-05-04 01:50 34.17025 -84.99327 13337 ft 318 kts 142°
2026-05-04 01:50 34.15269 -84.97697 13107 ft 318 kts 142°
2026-05-04 01:50 34.13532 -84.96062 12953 ft 315 kts 141°
2026-05-04 01:50 34.11801 -84.94420 12831 ft 317 kts 141°
2026-05-04 01:51 34.10063 -84.92773 12713 ft 317 kts 142°
2026-05-04 01:51 34.08330 -84.91135 12587 ft 316 kts 142°
2026-05-04 01:51 34.06600 -84.89500 12457 ft 316 kts 142°
2026-05-04 01:51 34.04867 -84.87939 12252 ft 314 kts 143°
2026-05-04 01:52 34.03158 -84.86305 12155 ft 313 kts 141°
2026-05-04 01:52 34.01451 -84.84665 12052 ft 314 kts 141°
2026-05-04 01:52 33.99743 -84.83037 11906 ft 313 kts 142°
2026-05-04 01:52 33.98033 -84.81416 11776 ft 312 kts 142°
2026-05-04 01:53 33.96327 -84.79804 11652 ft 311 kts 142°
2026-05-04 01:53 33.94621 -84.78195 11512 ft 311 kts 142°
2026-05-04 01:53 33.92922 -84.76593 11380 ft 310 kts 142°
2026-05-04 01:53 33.91226 -84.74996 11255 ft 309 kts 142°
2026-05-04 01:54 33.89529 -84.73398 11131 ft 309 kts 142°
2026-05-04 01:54 33.87838 -84.71807 11003 ft 308 kts 142°
2026-05-04 01:54 33.86174 -84.70242 10857 ft 307 kts 142°
2026-05-04 01:54 33.84487 -84.68656 10733 ft 307 kts 142°
2026-05-04 01:55 33.82800 -84.67072 10598 ft 306 kts 142°
2026-05-04 01:55 33.81126 -84.65500 10475 ft 305 kts 142°
2026-05-04 01:55 33.79452 -84.63930 10346 ft 304 kts 142°
2026-05-04 01:55 33.77782 -84.62363 10219 ft 304 kts 142°
2026-05-04 01:56 33.76147 -84.60830 10096 ft 300 kts 142°
2026-05-04 01:56 33.74565 -84.59237 9955 ft 294 kts 130°
2026-05-04 01:56 33.73586 -84.57134 9782 ft 287 kts 103°
2026-05-04 01:56 33.73378 -84.54774 9645 ft 285 kts 89°
2026-05-04 01:57 33.73345 -84.52352 8987 ft 297 kts 89°
2026-05-04 01:57 33.73322 -84.49810 8230 ft 311 kts 89°
2026-05-04 01:57 33.73308 -84.47161 7498 ft 323 kts 89°
2026-05-04 01:57 33.73300 -84.44427 6781 ft 332 kts 89°
2026-05-04 01:58 33.73298 -84.41630 6052 ft 333 kts 90°
2026-05-04 01:58 33.73297 -84.38868 5349 ft 327 kts 90°
2026-05-04 01:58 33.73296 -84.36153 4628 ft 323 kts 90°
2026-05-04 01:58 33.73295 -84.33493 4156 ft 311 kts 90°
2026-05-04 01:59 33.73294 -84.30991 4108 ft 287 kts 90°
2026-05-04 01:59 33.73298 -84.28696 4095 ft 263 kts 90°
2026-05-04 01:59 33.73300 -84.26584 4076 ft 242 kts 90°
2026-05-04 01:59 33.73302 -84.24654 4115 ft 221 kts 90°
2026-05-04 02:00 33.73304 -84.22837 4134 ft 220 kts 90°
2026-05-04 02:00 33.73305 -84.20996 4055 ft 219 kts 90°
2026-05-04 02:00 33.73260 -84.19170 3998 ft 213 kts 101°
2026-05-04 02:00 33.72598 -84.17755 3979 ft 184 kts 139°
2026-05-04 02:01 33.71540 -84.16954 4025 ft 180 kts 162°
2026-05-04 02:01 33.70319 -84.16727 4016 ft 177 kts 186°
2026-05-04 02:01 33.69154 -84.17132 4002 ft 174 kts 211°
2026-05-04 02:01 33.68168 -84.17938 4020 ft 174 kts 216°
2026-05-04 02:02 33.67162 -84.18758 4037 ft 175 kts 215°
2026-05-04 02:02 33.66148 -84.19568 4030 ft 175 kts 215°
2026-05-04 02:02 33.65257 -84.20526 3974 ft 172 kts 243°
2026-05-04 02:02 33.65037 -84.21912 3813 ft 171 kts 269°
2026-05-04 02:03 33.65015 -84.23338 3601 ft 171 kts 269°
2026-05-04 02:03 33.64997 -84.24748 3489 ft 170 kts 269°
2026-05-04 02:03 33.64983 -84.26169 3389 ft 170 kts 269°
2026-05-04 02:03 33.64972 -84.27591 3296 ft 170 kts 269°
2026-05-04 02:04 33.64962 -84.29009 3197 ft 170 kts 270°
2026-05-04 02:04 33.64956 -84.30431 3026 ft 170 kts 270°
2026-05-04 02:04 33.64963 -84.31830 2632 ft 167 kts 272°
2026-05-04 02:04 33.64972 -84.33175 2265 ft 155 kts 270°
2026-05-04 02:05 33.64960 -84.34432 1892 ft 146 kts 269°
2026-05-04 02:05 33.64943 -84.35605 1737 ft 140 kts 272°
2026-05-04 02:05 33.64959 -84.36763 1633 ft 140 kts 271°
2026-05-04 02:05 33.64954 -84.37940 1525 ft 142 kts 271°
2026-05-04 02:06 33.64946 -84.39124 1398 ft 142 kts 271°
2026-05-04 02:06 33.64949 -84.40306 1238 ft 142 kts 271°
2026-05-04 02:06 33.64951 -84.41475 1040 ft 134 kts 271°
2026-05-04 02:06 33.64959 -84.42467 1038 ft 102 kts 270°
2026-05-04 02:07 33.64946 -84.43110 1038 ft 65 kts 261°
2026-05-04 02:07 33.64826 -84.43305 1038 ft 14 kts 172°
2026-05-04 02:07 33.64792 -84.43247 1038 ft 9 kts 92°
2026-05-04 02:07 33.64790 -84.43165 1038 ft 11 kts 90°
2026-05-04 02:08 33.64791 -84.43062 1038 ft 13 kts 90°
2026-05-04 02:08 33.64789 -84.42940 1038 ft 16 kts 98°
2026-05-04 02:08 33.64709 -84.42879 1039 ft 15 kts 181°
2026-05-04 02:08 33.64608 -84.42835 1038 ft 17 kts 153°
2026-05-04 02:09 33.64509 -84.42778 1038 ft 16 kts 164°
2026-05-04 02:09 33.64461 -84.42819 1038 ft 8 kts 265°
2026-05-04 02:09 33.64460 -84.42892 1038 ft 10 kts 270°
2026-05-04 02:09 33.64460 -84.42985 1038 ft 12 kts 270°
2026-05-04 02:10 33.64414 -84.43065 1038 ft 14 kts 193°
2026-05-04 02:10 33.64337 -84.43066 1038 ft 15 kts 180°